• In United Kingdom
  • List of Countries
  • For 7 days
  • Water Temperature
  • Satellite Maps
  • Weather Map
  • Weather Widgets
  • user-avatar
    Login

    Hourly Weather Chimoio

    Today, 23 November, Thursday

    Time Temperature Precipitation Wind Pressure Humidity
    00:00 +20°C° 0 mm 0 mps 701 mmHg 92%
    01:00 +20°C° 0 mm 0 mps 701 mmHg 93%
    02:00 +20°C° 0 mm 0 mps 701 mmHg 94%
    03:00 +20°C° 0 mm 0 mps 701 mmHg 94%
    04:00 +20°C° 0 mm 0 mps 701 mmHg 94%
    05:00 +20°C° 0 mm 0 mps 701 mmHg 94%
    06:00 +23°C° 0.1 mm 1 mps 702 mmHg 91%
    07:00 +23°C° 0.1 mm 1 mps 702 mmHg 89%
    08:00 +25°C° 0 mm 1 mps 703 mmHg 83%
    09:00 +26°C° 0.2 mm 2 mps 703 mmHg 78%
    10:00 +27°C° 0.2 mm 2 mps 703 mmHg 72%
    11:00 +28°C° 0.2 mm 2 mps 703 mmHg 66%
    12:00 +28°C° 1.1 mm 2 mps 702 mmHg 66%
    13:00 +29°C° 1.1 mm 2 mps 702 mmHg 65%
    14:00 +29°C° 0 mm 3 mps 701 mmHg 66%
    15:00 +28°C° 1.2 mm 2 mps 701 mmHg 71%
    16:00 +27°C° 1.2 mm 2 mps 701 mmHg 75%
    17:00 +26°C° 1.2 mm 2 mps 701 mmHg 80%
    18:00 +25°C° 0.4 mm 2 mps 702 mmHg 85%
    19:00 +24°C° 0.4 mm 1 mps 702 mmHg 89%
    20:00 +23°C° 0.4 mm 1 mps 702 mmHg 93%
    21:00 +22°C° 0.3 mm 1 mps 703 mmHg 94%
    22:00 +22°C° 0.3 mm 1 mps 703 mmHg 95%
    23:00 +20°C° 0.3 mm 0 mps 703 mmHg 97%

    Tomorrow, 24 November, Friday

    Time Temperature Precipitation Wind Pressure Humidity
    00:00 +20°C° 0.1 mm 0 mps 703 mmHg 96%
    01:00 +20°C° 0.1 mm 0 mps 703 mmHg 96%
    02:00 +22°C° 0.1 mm 1 mps 703 mmHg 96%
    03:00 +21°C° 0.1 mm 1 mps 703 mmHg 96%
    04:00 +21°C° 0.1 mm 1 mps 703 mmHg 97%
    05:00 +21°C° 0.1 mm 1 mps 703 mmHg 97%
    06:00 +22°C° 0.1 mm 1 mps 703 mmHg 92%
    07:00 +23°C° 0.1 mm 1 mps 703 mmHg 86%
    08:00 +24°C° 0.1 mm 1 mps 704 mmHg 81%
    09:00 +25°C° 0.1 mm 1 mps 704 mmHg 74%
    10:00 +27°C° 0.1 mm 2 mps 704 mmHg 66%
    11:00 +28°C° 0.1 mm 2 mps 704 mmHg 59%
    12:00 +29°C° 0.1 mm 2 mps 703 mmHg 58%
    13:00 +29°C° 0.1 mm 2 mps 702 mmHg 56%
    14:00 +29°C° 0.1 mm 2 mps 702 mmHg 54%
    15:00 +29°C° 0 mm 2 mps 701 mmHg 58%
    16:00 +28°C° 0 mm 2 mps 701 mmHg 62%
    17:00 +27°C° 0 mm 2 mps 701 mmHg 65%
    18:00 +26°C° 0 mm 1 mps 701 mmHg 71%
    19:00 +24°C° 0 mm 1 mps 701 mmHg 76%
    20:00 +23°C° 0 mm 1 mps 701 mmHg 81%
    21:00 +20°C° 0 mm 0 mps 701 mmHg 83%
    22:00 +20°C° 0 mm 0 mps 701 mmHg 85%
    23:00 +19°C° 0 mm 0 mps 701 mmHg 87%

    Day after tomorrow, 25 November, Saturday

    Time Temperature Precipitation Wind Pressure Humidity
    00:00 +19°C° 0 mm 0 mps 700 mmHg 88%
    01:00 +19°C° 0 mm 0 mps 700 mmHg 90%
    02:00 +18°C° 0 mm 0 mps 700 mmHg 91%
    03:00 +18°C° 0 mm 0 mps 700 mmHg 92%
    04:00 +18°C° 0 mm 0 mps 700 mmHg 93%
    05:00 +18°C° 0 mm 0 mps 700 mmHg 93%
    06:00 +20°C° 0 mm 0 mps 701 mmHg 84%
    07:00 +23°C° 0 mm 0 mps 702 mmHg 75%
    08:00 +25°C° 0 mm 0 mps 702 mmHg 66%
    09:00 +28°C° 0 mm 1 mps 702 mmHg 61%
    10:00 +29°C° 0 mm 1 mps 702 mmHg 55%
    11:00 +31°C° 0 mm 1 mps 702 mmHg 50%
    12:00 +30°C° 0.4 mm 2 mps 701 mmHg 51%
    13:00 +30°C° 0.4 mm 2 mps 700 mmHg 51%
    14:00 +30°C° 0.4 mm 2 mps 700 mmHg 52%
    15:00 +29°C° 0.5 mm 1 mps 699 mmHg 56%
    16:00 +28°C° 0.5 mm 1 mps 699 mmHg 59%
    17:00 +28°C° 0.5 mm 1 mps 699 mmHg 63%
    18:00 +26°C° 0.1 mm 1 mps 699 mmHg 67%
    19:00 +25°C° 0.1 mm 1 mps 699 mmHg 70%
    20:00 +23°C° 0.1 mm 1 mps 700 mmHg 74%
    21:00 +23°C° 0 mm 1 mps 700 mmHg 76%
    22:00 +23°C° 0 mm 1 mps 700 mmHg 79%
    23:00 +22°C° 0 mm 1 mps 700 mmHg 81%

    26 November, Sunday

    Time Temperature Precipitation Wind Pressure Humidity
    00:00 +22°C° 0.1 mm 1 mps 700 mmHg 83%
    01:00 +21°C° 0.1 mm 1 mps 700 mmHg 85%
    02:00 +21°C° 0.1 mm 1 mps 700 mmHg 88%
    03:00 +21°C° 0 mm 1 mps 700 mmHg 88%
    04:00 +21°C° 0 mm 1 mps 700 mmHg 89%
    05:00 +18°C° 0 mm 0 mps 700 mmHg 89%
    06:00 +22°C° 0 mm 1 mps 700 mmHg 83%
    07:00 +23°C° 0 mm 1 mps 701 mmHg 76%
    08:00 +25°C° 0 mm 1 mps 702 mmHg 69%
    09:00 +27°C° 0 mm 1 mps 702 mmHg 62%
    10:00 +29°C° 0 mm 1 mps 702 mmHg 55%
    11:00 +31°C° 0 mm 2 mps 702 mmHg 48%
    12:00 +31°C° 0.1 mm 2 mps 701 mmHg 49%
    13:00 +32°C° 0.1 mm 1 mps 700 mmHg 49%
    14:00 +32°C° 0.1 mm 1 mps 699 mmHg 50%
    15:00 +31°C° 0.1 mm 1 mps 699 mmHg 55%
    16:00 +30°C° 0.1 mm 1 mps 699 mmHg 60%
    17:00 +29°C° 0.1 mm 1 mps 700 mmHg 64%
    18:00 +27°C° 1.5 mm 2 mps 700 mmHg 72%
    19:00 +25°C° 1.5 mm 2 mps 700 mmHg 80%
    20:00 +23°C° 1.5 mm 2 mps 701 mmHg 88%
    21:00 +23°C° 0.3 mm 2 mps 701 mmHg 90%
    22:00 +22°C° 0.3 mm 1 mps 701 mmHg 93%
    23:00 +22°C° 0.3 mm 1 mps 701 mmHg 95%

    27 November, Monday

    Time Temperature Precipitation Wind Pressure Humidity
    00:00 +22°C° 0 mm 1 mps 701 mmHg 95%
    01:00 +22°C° 0 mm 1 mps 701 mmHg 95%
    02:00 +20°C° 0 mm 0 mps 700 mmHg 96%
    03:00 +20°C° 0.1 mm 0 mps 701 mmHg 96%
    04:00 +20°C° 0.1 mm 0 mps 701 mmHg 96%
    05:00 +20°C° 0.1 mm 0 mps 701 mmHg 96%
    06:00 +20°C° 0.1 mm 0 mps 702 mmHg 92%
    07:00 +23°C° 0.1 mm 1 mps 703 mmHg 89%
    08:00 +24°C° 0.1 mm 1 mps 703 mmHg 85%
    09:00 +25°C° 0.3 mm 1 mps 703 mmHg 81%
    10:00 +27°C° 0.3 mm 2 mps 703 mmHg 76%
    11:00 +28°C° 0.3 mm 2 mps 703 mmHg 71%
    12:00 +27°C° 2.6 mm 2 mps 702 mmHg 75%
    13:00 +26°C° 2.6 mm 2 mps 702 mmHg 78%
    14:00 +26°C° 2.6 mm 2 mps 701 mmHg 82%
    15:00 +25°C° 2.7 mm 2 mps 701 mmHg 85%
    16:00 +24°C° 2.7 mm 2 mps 702 mmHg 89%
    17:00 +23°C° 2.7 mm 1 mps 702 mmHg 92%
    18:00 +22°C° 1.8 mm 1 mps 702 mmHg 93%
    19:00 +22°C° 1.8 mm 1 mps 703 mmHg 94%
    20:00 +20°C° 1.8 mm 2 mps 704 mmHg 95%
    21:00 +21°C° 1.1 mm 1 mps 704 mmHg 95%
    22:00 +21°C° 1.1 mm 1 mps 704 mmHg 96%
    23:00 +21°C° 1.1 mm 1 mps 704 mmHg 96%

    28 November, Tuesday

    Time Temperature Precipitation Wind Pressure Humidity
    00:00 +21°C° 0.6 mm 1 mps 703 mmHg 96%
    01:00 +21°C° 0.6 mm 1 mps 703 mmHg 96%
    02:00 +19°C° 0.6 mm 2 mps 702 mmHg 96%
    03:00 +19°C° 0.7 mm 2 mps 703 mmHg 96%
    04:00 +19°C° 0.7 mm 2 mps 703 mmHg 96%
    05:00 +19°C° 0.7 mm 3 mps 704 mmHg 96%
    06:00 +19°C° 0.2 mm 2 mps 704 mmHg 95%
    07:00 +19°C° 0.2 mm 2 mps 704 mmHg 94%
    08:00 +19°C° 0.2 mm 2 mps 705 mmHg 93%
    09:00 +20°C° 0.1 mm 2 mps 704 mmHg 88%
    10:00 +21°C° 0.1 mm 2 mps 704 mmHg 84%
    11:00 +23°C° 0.1 mm 2 mps 704 mmHg 79%
    12:00 +24°C° 0.3 mm 2 mps 703 mmHg 76%
    13:00 +25°C° 0.3 mm 3 mps 703 mmHg 73%
    14:00 +26°C° 0.3 mm 3 mps 702 mmHg 69%
    15:00 +25°C° 0.5 mm 3 mps 702 mmHg 73%
    16:00 +24°C° 0.5 mm 3 mps 702 mmHg 76%
    17:00 +24°C° 0.5 mm 2 mps 702 mmHg 79%
    18:00 +23°C° 0.3 mm 2 mps 702 mmHg 84%
    19:00 +20°C° 0.3 mm 2 mps 703 mmHg 90%
    20:00 +20°C° 0.3 mm 1 mps 703 mmHg 95%
    21:00 +20°C° 0.2 mm 1 mps 703 mmHg 95%
    22:00 +18°C° 0.2 mm 0 mps 703 mmHg 95%
    23:00 +18°C° 0.2 mm 0 mps 703 mmHg 95%
    Show more